Regional Weather Roundup
Issued by NWS

Home | Current Version | Previous Version | Text Only | Print | Product List | Glossary Off
Versions: 1 2 3 4 5 6 7 8 9 10 11 12 13 14 15 16 17 18 19 20 21 22 23 24 25 26 27 28 29 30 31 32 33 34 35 36 37 38 39 40 41 42 43 44 45 46 47 48 49 50

652
ASUS43 KOAX 212302
RWRNE

WEATHER ROUNDUP FOR NEBRASKA
NATIONAL WEATHER SERVICE OMAHA NE
600 PM CDT THU MAY 21 2015

NOTES: SATELLITE DATA IS BEING USED TO AUGMENT CLOUD COVER ABOVE
       12000 FEET.
       "FAIR" INDICATES FEW OR NO CLOUDS BELOW 12,000 FEET WITH NO
       SIGNIFICANT WEATHER AND/OR OBSTRUCTIONS TO VISIBILITY.

  * THESE STATIONS DO NOT REPORT WEATHER SUCH AS RAIN...SNOW OR FOG.

NEZ001>004-019>022-054>056-220000-
NEBRASKA PANHANDLE

CITY           SKY/WX    TMP DP  RH WIND       PRES   REMARKS
SCOTTSBLUFF    CLOUDY    56  43  61 SE10      30.16F
ALLIANCE       CLOUDY    56  43  61 S13       30.17F
CHADRON        CLOUDY    59  43  55 SE12      30.15F
KIMBALL          N/A    N/A N/A N/A MISG        N/A
SIDNEY         CLOUDY    56  43  61 SE16      30.16F
$$

NEZ057>060-069>072-079>082-220000-
SOUTHWEST NEBRASKA

CITY           SKY/WX    TMP DP  RH WIND       PRES   REMARKS
NORTH PLATTE   PTSUNNY   62  41  46 S7        30.19F
IMPERIAL       CLOUDY    58  43  57 SE13      30.18F
LEXINGTON      SUNNY     63  39  40 S3        30.20F
MCCOOK         PTSUNNY   62  39  42 SE9       30.19F
$$

NEZ005>010-023>029-035>040-094-220000-
NORTH CENTRAL NEBRASKA

CITY           SKY/WX    TMP DP  RH WIND       PRES   REMARKS
VALENTINE      SUNNY     66  28  24 SE9       30.18F
AINSWORTH      SUNNY     65  33  29 S8        30.18F
BROKEN BOW     SUNNY     65  38  36 SW7       30.19F
ORD            SUNNY     65  32  29 VRB5      30.19F
$$

NEZ041-046>049-061>064-073>077-083>087-220000-
SOUTH CENTRAL NEBRASKA

CITY           SKY/WX    TMP DP  RH WIND       PRES   REMARKS
GRAND ISLAND   SUNNY     66  35  31 S9        30.21F
HASTINGS       SUNNY     65  34  31 S5        30.21F
KEARNEY *      SUNNY     64  34  32 SW5       30.21F
$$

NEZ011>018-030>034-042>045-220000-
NORTHEAST NEBRASKA

CITY           SKY/WX    TMP DP  RH WIND       PRES   REMARKS
NORFOLK        SUNNY     71  37  28 N5        30.17F
BLAIR          SUNNY     71  34  26 SW3       30.16F
COLUMBUS *     SUNNY     68  36  30 S6        30.22F
FREMONT        SUNNY     72  36  26 W8        30.17F
TEKAMAH        SUNNY     75  37  25 W16       30.14F
$$

NEZ050>053-065>068-078-088>093-220000-
SOUTHEAST NEBRASKA

CITY           SKY/WX    TMP DP  RH WIND       PRES   REMARKS
LINCOLN        SUNNY     69  38  32 SW8       30.20F
OMAHA EPPLEY   MOSUNNY   73  39  29 W12       30.15F
FALLS CITY     SUNNY     69  41  36 VRB6      30.18F
$$

NEZ044-045-051>053-067-220000-
OMAHA AREA

CITY           SKY/WX    TMP DP  RH WIND       PRES   REMARKS
OMAHA EPPLEY   MOSUNNY   73  39  29 W12       30.15F
BLAIR          SUNNY     71  34  26 SW3       30.16F
FREMONT        SUNNY     72  36  26 W8        30.17F
OFFUTT AFB     SUNNY     71  41  33 W7        30.15F
$$



USA.gov is the U.S. government's official web portal to all federal, state and local government web resources and services.